Location: Ash Observatory
(39.7321°N, 75.2004°W)
Time: 08:11:03
(UTC-04:00)

ISS - Pass Details

Date: 26 March 2019
Orbit: 408 x 410 km, 51.6° (Epoch: 25 April)

Event Time Altitude Azimuth Distance (km) Brightness Sun altitude
Rises 20:33:50 0° 279° (W) 2,332 1.9 -15.0°
Reaches altitude 10° 20:36:32 10° 304° (WNW) 1,472 0.2 -15.5°
Maximum altitude 20:38:37 15° 342° (NNW) 1,186 -1.0 -15.9°
Drops below altitude 10° 20:40:41 10° 22° (NNE) 1,474 -1.0 -16.3°
Enters shadow 20:41:39 - 33° (NNE) 1,742 -0.8 -16.5°
